Location: Poughquag
(41.6090°N, 73.6820°W)
Time: 06:54:42
(UTC-05:00)

Altair - Pass Details

Date: 06 December 2023
Orbit: 1501 x 1682 km, 47.2° (Epoch: 02 March)

Event Time Altitude Azimuth Distance (km) Brightness Sun altitude
Rises 11:43:51 0° 287° (WNW) 4,756 9.9 25.9°
Reaches altitude 10° 11:47:00 10° 290° (WNW) 3,747 9.4 25.9°
Maximum altitude 11:56:25 69° 13° (NNE) 1,616 7.8 25.8°
Drops below altitude 10° 12:05:34 10° 97° (E) 3,652 9.6 25.7°
Sets 12:08:37 0° 100° (E) 4,630 10.1 25.7°
